Time,TemperatureF,DewpointF,PressureIn,WindDirection,WindDirectionDegrees,WindSpeedMPH,WindSpeedGustMPH,Humidity,HourlyPrecipIn,Conditions,Clouds,dailyrainin,SoftwareType,DateUTC
2013-03-21 00:03:00,51.8,32.2,30.04,NNE,20,3.0,17.0,47,0.00,,,0.00,Wunderground v.1.15,2013-03-21 05:03:00,
2013-03-21 00:09:00,51.6,32.0,30.04,North,356,3.0,17.0,47,0.00,,,0.00,Wunderground v.1.15,2013-03-21 05:09:00,
2013-03-21 00:15:00,51.3,32.3,30.04,North,11,3.0,17.0,48,0.00,,,0.00,Wunderground v.1.15,2013-03-21 05:15:00,
2013-03-21 00:20:00,51.2,32.2,30.04,NNE,24,3.0,3.0,48,0.00,,,0.00,Wunderground v.1.15,2013-03-21 05:20:00,
2013-03-21 00:26:00,51.0,32.5,30.04,NNE,12,2.0,17.0,49,0.00,,,0.00,Wunderground v.1.15,2013-03-21 05:26:00,
2013-03-21 00:32:00,50.5,33.0,30.04,NNE,21,2.0,17.0,51,0.00,,,0.00,Wunderground v.1.15,2013-03-21 05:32:00,
2013-03-21 00:38:00,50.1,32.2,30.04,NNE,16,2.0,17.0,50,0.00,,,0.00,Wunderground v.1.15,2013-03-21 05:38:00,
2013-03-21 00:44:00,50.0,32.1,30.03,NNE,29,3.0,17.0,50,0.00,,,0.00,Wunderground v.1.15,2013-03-21 05:44:00,
2013-03-21 00:50:00,49.8,32.9,30.03,North,1,3.0,17.0,52,0.00,,,0.00,Wunderground v.1.15,2013-03-21 05:50:00,
2013-03-21 00:56:00,49.7,32.8,30.03,North,352,3.0,17.0,52,0.00,,,0.00,Wunderground v.1.15,2013-03-21 05:56:00,
2013-03-21 01:02:00,49.6,32.7,30.02,NNW,346,4.0,17.0,52,0.00,,,0.00,Wunderground v.1.15,2013-03-21 06:02:00,
2013-03-21 01:08:00,49.5,32.6,30.02,NNW,348,4.0,17.0,52,0.00,,,0.00,Wunderground v.1.15,2013-03-21 06:08:00,
2013-03-21 01:14:00,49.4,33.0,30.02,NNE,13,4.0,17.0,53,0.00,,,0.00,Wunderground v.1.15,2013-03-21 06:14:00,
2013-03-21 01:19:00,49.3,32.9,30.02,NNE,33,3.0,17.0,53,0.00,,,0.00,Wunderground v.1.15,2013-03-21 06:19:00,
2013-03-21 01:25:00,49.0,33.1,30.02,NNE,17,2.0,17.0,54,0.00,,,0.00,Wunderground v.1.15,2013-03-21 06:25:00,
2013-03-21 01:31:00,48.7,32.8,30.02,NE,36,2.0,17.0,54,0.00,,,0.00,Wunderground v.1.15,2013-03-21 06:31:00,
2013-03-21 01:36:00,48.6,32.7,30.02,North,6,3.0,17.0,54,0.00,,,0.00,Wunderground v.1.15,2013-03-21 06:36:00,
2013-03-21 01:42:00,48.4,32.5,30.02,NNW,348,3.0,17.0,54,0.00,,,0.00,Wunderground v.1.15,2013-03-21 06:42:00,
2013-03-21 01:48:00,48.2,32.3,30.02,NNW,346,3.0,17.0,54,0.00,,,0.00,Wunderground v.1.15,2013-03-21 06:48:00,
2013-03-21 01:54:00,48.0,32.1,30.02,NNE,26,2.0,17.0,54,0.00,,,0.00,Wunderground v.1.15,2013-03-21 06:54:00,
2013-03-21 02:00:00,47.8,32.4,30.02,NNW,338,2.0,17.0,55,0.00,,,0.00,Wunderground v.1.15,2013-03-21 07:00:00,
2013-03-21 02:05:00,47.7,32.3,30.03,North,1,2.0,17.0,55,0.00,,,0.00,Wunderground v.1.15,2013-03-21 07:05:00,
2013-03-21 02:12:00,47.6,32.7,30.03,NNE,20,3.0,17.0,56,0.00,,,0.00,Wunderground v.1.15,2013-03-21 07:12:00,
2013-03-21 02:17:00,47.5,32.6,30.03,North,5,3.0,17.0,56,0.00,,,0.00,Wunderground v.1.15,2013-03-21 07:17:00,
2013-03-21 02:23:00,47.5,32.6,30.03,North,6,2.0,17.0,56,0.00,,,0.00,Wunderground v.1.15,2013-03-21 07:23:00,
2013-03-21 02:28:00,47.4,32.9,30.03,North,360,2.0,17.0,57,0.00,,,0.00,Wunderground v.1.15,2013-03-21 07:28:00,
2013-03-21 02:34:00,47.3,32.8,30.02,North,352,2.0,17.0,57,0.00,,,0.00,Wunderground v.1.15,2013-03-21 07:34:00,
2013-03-21 02:40:00,47.4,32.9,30.02,North,355,2.0,17.0,57,0.00,,,0.00,Wunderground v.1.15,2013-03-21 07:40:00,
2013-03-21 02:46:00,47.5,33.0,30.02,NNE,22,3.0,17.0,57,0.00,,,0.00,Wunderground v.1.15,2013-03-21 07:46:00,
2013-03-21 02:51:00,47.5,32.6,30.02,NW,325,3.0,17.0,56,0.00,,,0.00,Wunderground v.1.15,2013-03-21 07:51:00,
2013-03-21 02:57:00,47.4,32.9,30.02,North,353,3.0,17.0,57,0.00,,,0.00,Wunderground v.1.15,2013-03-21 07:57:00,
2013-03-21 03:02:00,47.2,33.2,30.02,North,355,3.0,17.0,58,0.00,,,0.00,Wunderground v.1.15,2013-03-21 08:02:00,
2013-03-21 03:08:00,47.1,33.1,30.02,North,9,3.0,17.0,58,0.00,,,0.00,Wunderground v.1.15,2013-03-21 08:08:00,
2013-03-21 03:14:00,46.9,33.3,30.01,NE,36,3.0,17.0,59,0.00,,,0.00,Wunderground v.1.15,2013-03-21 08:14:00,
2013-03-21 03:19:00,46.8,33.2,30.01,NW,324,3.0,17.0,59,0.00,,,0.00,Wunderground v.1.15,2013-03-21 08:19:00,
2013-03-21 03:24:00,46.6,32.6,30.01,North,9,3.0,17.0,58,0.00,,,0.00,Wunderground v.1.15,2013-03-21 08:24:00,
2013-03-21 03:30:00,46.5,32.5,30.01,NW,324,3.0,17.0,58,0.00,,,0.00,Wunderground v.1.15,2013-03-21 08:30:00,
2013-03-21 03:35:00,46.4,32.8,30.01,NNE,18,3.0,17.0,59,0.00,,,0.00,Wunderground v.1.15,2013-03-21 08:35:00,
2013-03-21 03:40:00,46.3,32.7,30.01,NNW,348,3.0,3.0,59,0.00,,,0.00,Wunderground v.1.15,2013-03-21 08:40:00,
2013-03-21 03:46:00,46.2,33.1,30.00,NE,38,3.0,17.0,60,0.00,,,0.00,Wunderground v.1.15,2013-03-21 08:46:00,
2013-03-21 03:51:00,46.2,33.5,30.00,North,11,3.0,17.0,61,0.00,,,0.00,Wunderground v.1.15,2013-03-21 08:51:00,
2013-03-21 03:56:00,46.1,33.0,30.00,North,350,3.0,17.0,60,0.00,,,0.00,Wunderground v.1.15,2013-03-21 08:56:00,
2013-03-21 04:02:00,46.0,32.9,30.00,NNE,20,3.0,17.0,60,0.00,,,0.00,Wunderground v.1.15,2013-03-21 09:02:00,
2013-03-21 04:08:00,45.9,32.8,30.00,NNW,342,3.0,17.0,60,0.00,,,0.00,Wunderground v.1.15,2013-03-21 09:08:00,
2013-03-21 04:14:00,45.8,32.7,30.00,NE,37,3.0,17.0,60,0.00,,,0.00,Wunderground v.1.15,2013-03-21 09:14:00,
2013-03-21 04:19:00,45.8,32.7,30.00,North,360,2.0,17.0,60,0.00,,,0.00,Wunderground v.1.15,2013-03-21 09:19:00,
2013-03-21 04:25:00,45.8,32.7,29.99,North,8,2.0,17.0,60,0.00,,,0.00,Wunderground v.1.15,2013-03-21 09:25:00,
2013-03-21 04:31:00,45.7,32.6,30.00,NNE,15,2.0,17.0,60,0.00,,,0.00,Wunderground v.1.15,2013-03-21 09:31:00,
2013-03-21 04:37:00,45.5,32.8,30.00,North,354,2.0,17.0,61,0.00,,,0.00,Wunderground v.1.15,2013-03-21 09:37:00,
2013-03-21 04:43:00,45.5,32.8,30.00,NNE,15,2.0,17.0,61,0.00,,,0.00,Wunderground v.1.15,2013-03-21 09:43:00,
2013-03-21 04:49:00,45.4,32.7,30.00,NNE,23,3.0,17.0,61,0.00,,,0.00,Wunderground v.1.15,2013-03-21 09:49:00,
2013-03-21 04:55:00,45.3,32.6,30.00,NNE,22,3.0,17.0,61,0.00,,,0.00,Wunderground v.1.15,2013-03-21 09:55:00,
2013-03-21 05:01:00,45.3,33.0,30.00,North,356,3.0,17.0,62,0.00,,,0.00,Wunderground v.1.15,2013-03-21 10:01:00,
2013-03-21 05:06:00,45.1,32.8,30.01,NE,39,2.0,17.0,62,0.00,,,0.00,Wunderground v.1.15,2013-03-21 10:06:00,
2013-03-21 05:12:00,45.1,33.2,30.01,North,349,2.0,17.0,63,0.00,,,0.00,Wunderground v.1.15,2013-03-21 10:12:00,
2013-03-21 05:18:00,45.0,33.2,30.01,North,359,2.0,17.0,63,0.00,,,0.00,Wunderground v.1.15,2013-03-21 10:18:00,
2013-03-21 05:24:00,45.0,33.2,30.01,NE,44,2.0,17.0,63,0.00,,,0.00,Wunderground v.1.15,2013-03-21 10:24:00,
2013-03-21 05:30:00,44.9,33.1,30.01,NNE,26,2.0,2.0,63,0.00,,,0.00,Wunderground v.1.15,2013-03-21 10:30:00,
2013-03-21 05:36:00,44.9,33.1,30.01,NNE,27,2.0,17.0,63,0.00,,,0.00,Wunderground v.1.15,2013-03-21 10:36:00,
2013-03-21 05:41:00,44.9,33.1,30.01,NNE,25,2.0,17.0,63,0.00,,,0.00,Wunderground v.1.15,2013-03-21 10:41:00,
2013-03-21 05:47:00,44.9,33.1,30.02,NNW,346,2.0,17.0,63,0.00,,,0.00,Wunderground v.1.15,2013-03-21 10:47:00,
2013-03-21 05:52:00,44.9,33.1,30.01,NW,322,2.0,17.0,63,0.00,,,0.00,Wunderground v.1.15,2013-03-21 10:52:00,
2013-03-21 05:57:00,44.9,33.1,30.02,North,356,2.0,17.0,63,0.00,,,0.00,Wunderground v.1.15,2013-03-21 10:57:00,
2013-03-21 06:03:00,44.8,33.0,30.02,NNW,346,2.0,17.0,63,0.00,,,0.00,Wunderground v.1.15,2013-03-21 11:03:00,
2013-03-21 06:09:00,44.7,32.9,30.02,NNW,342,2.0,17.0,63,0.00,,,0.00,Wunderground v.1.15,2013-03-21 11:09:00,
2013-03-21 06:14:00,44.7,33.3,30.02,NE,37,2.0,17.0,64,0.00,,,0.00,Wunderground v.1.15,2013-03-21 11:14:00,
2013-03-21 06:20:00,44.6,33.2,30.02,NNE,23,2.0,2.0,64,0.00,,,0.00,Wunderground v.1.15,2013-03-21 11:20:00,
2013-03-21 06:25:00,44.5,33.5,30.01,East,83,1.0,17.0,65,0.00,,,0.00,Wunderground v.1.15,2013-03-21 11:25:00,
2013-03-21 06:30:00,44.5,33.5,30.02,NNE,31,1.0,17.0,65,0.00,,,0.00,Wunderground v.1.15,2013-03-21 11:30:00,
2013-03-21 06:36:00,44.5,33.8,30.02,NNE,23,1.0,17.0,66,0.00,,,0.00,Wunderground v.1.15,2013-03-21 11:36:00,
2013-03-21 06:41:00,44.6,33.6,30.03,NNW,340,2.0,17.0,65,0.00,,,0.00,Wunderground v.1.15,2013-03-21 11:41:00,
2013-03-21 06:47:00,44.7,33.6,30.03,NNW,346,2.0,17.0,65,0.00,,,0.00,Wunderground v.1.15,2013-03-21 11:47:00,
2013-03-21 06:53:00,44.7,33.6,30.03,NNE,23,3.0,17.0,65,0.00,,,0.00,Wunderground v.1.15,2013-03-21 11:53:00,
2013-03-21 06:58:00,44.6,33.9,30.04,NE,39,2.0,17.0,66,0.00,,,0.00,Wunderground v.1.15,2013-03-21 11:58:00,
2013-03-21 07:04:00,44.5,33.8,30.04,NNE,15,2.0,17.0,66,0.00,,,0.00,Wunderground v.1.15,2013-03-21 12:04:00,
2013-03-21 07:10:00,44.5,34.2,30.05,NNW,330,2.0,17.0,67,0.00,,,0.00,Wunderground v.1.15,2013-03-21 12:10:00,
2013-03-21 07:15:00,44.5,34.2,30.04,North,356,2.0,17.0,67,0.00,,,0.00,Wunderground v.1.15,2013-03-21 12:15:00,
2013-03-21 07:21:00,44.5,34.2,30.04,North,357,2.0,17.0,67,0.00,,,0.00,Wunderground v.1.15,2013-03-21 12:21:00,
2013-03-21 07:26:00,44.5,34.2,30.04,NE,37,3.0,17.0,67,0.00,,,0.00,Wunderground v.1.15,2013-03-21 12:26:00,
2013-03-21 07:32:00,44.5,34.6,30.04,NE,49,2.0,17.0,68,0.00,,,0.00,Wunderground v.1.15,2013-03-21 12:32:00,
2013-03-21 07:38:00,44.7,34.8,30.04,North,8,2.0,17.0,68,0.00,,,0.00,Wunderground v.1.15,2013-03-21 12:38:00,
2013-03-21 07:44:00,44.8,34.5,30.04,North,360,3.0,17.0,67,0.00,,,0.00,Wunderground v.1.15,2013-03-21 12:44:00,
2013-03-21 07:49:00,45.0,34.7,30.04,North,352,3.0,17.0,67,0.00,,,0.00,Wunderground v.1.15,2013-03-21 12:49:00,
2013-03-21 07:54:00,45.1,34.8,30.04,North,1,3.0,17.0,67,0.00,,,0.00,Wunderground v.1.15,2013-03-21 12:54:00,
2013-03-21 07:59:00,45.3,34.6,30.05,NNE,22,2.0,17.0,66,0.00,,,0.00,Wunderground v.1.15,2013-03-21 12:59:00,
2013-03-21 08:05:00,45.9,35.2,30.05,NE,49,2.0,17.0,66,0.00,,,0.00,Wunderground v.1.15,2013-03-21 13:05:00,
2013-03-21 08:11:00,46.3,35.2,30.05,NE,46,3.0,17.0,65,0.00,,,0.00,Wunderground v.1.15,2013-03-21 13:11:00,
2013-03-21 08:16:00,46.5,35.0,30.05,NE,52,3.0,17.0,64,0.00,,,0.00,Wunderground v.1.15,2013-03-21 13:16:00,
2013-03-21 08:22:00,46.7,35.2,30.04,NNE,30,3.0,17.0,64,0.00,,,0.00,Wunderground v.1.15,2013-03-21 13:22:00,
2013-03-21 08:28:00,47.0,35.0,30.04,NE,36,4.0,17.0,63,0.00,,,0.00,Wunderground v.1.15,2013-03-21 13:28:00,
2013-03-21 08:34:00,47.4,35.0,30.05,North,359,3.0,17.0,62,0.00,,,0.00,Wunderground v.1.15,2013-03-21 13:34:00,
2013-03-21 08:39:00,47.7,35.3,30.05,NE,54,3.0,17.0,62,0.00,,,0.00,Wunderground v.1.15,2013-03-21 13:39:00,
2013-03-21 08:45:00,48.3,35.5,30.06,ENE,58,3.0,17.0,61,0.00,,,0.00,Wunderground v.1.15,2013-03-21 13:45:00,
2013-03-21 08:50:00,48.8,35.5,30.05,NW,313,4.0,4.0,60,0.00,,,0.00,Wunderground v.1.15,2013-03-21 13:50:00,
2013-03-21 08:56:00,49.3,34.7,30.05,NE,46,4.0,17.0,57,0.00,,,0.00,Wunderground v.1.15,2013-03-21 13:56:00,
2013-03-21 09:01:00,49.8,34.7,30.06,ENE,62,4.0,17.0,56,0.00,,,0.00,Wunderground v.1.15,2013-03-21 14:01:00,
2013-03-21 09:07:00,50.1,34.5,30.06,ESE,112,4.0,17.0,55,0.00,,,0.00,Wunderground v.1.15,2013-03-21 14:07:00,
2013-03-21 09:13:00,50.4,33.9,30.06,ENE,61,5.0,17.0,53,0.00,,,0.00,Wunderground v.1.15,2013-03-21 14:13:00,
2013-03-21 09:19:00,50.9,34.4,30.06,NE,34,4.0,17.0,53,0.00,,,0.00,Wunderground v.1.15,2013-03-21 14:19:00,
2013-03-21 09:25:00,51.1,33.6,30.06,ESE,108,5.0,17.0,51,0.00,,,0.00,Wunderground v.1.15,2013-03-21 14:25:00,
2013-03-21 09:31:00,51.4,33.4,30.06,NE,51,5.0,17.0,50,0.00,,,0.00,Wunderground v.1.15,2013-03-21 14:31:00,
2013-03-21 09:37:00,52.0,33.4,30.06,ENE,68,4.0,17.0,49,0.00,,,0.00,Wunderground v.1.15,2013-03-21 14:37:00,
2013-03-21 09:43:00,52.8,35.2,30.06,East,91,5.0,17.0,51,0.00,,,0.00,Wunderground v.1.15,2013-03-21 14:43:00,
2013-03-21 09:49:00,52.7,31.4,30.06,NE,54,6.0,17.0,44,0.00,,,0.00,Wunderground v.1.15,2013-03-21 14:49:00,
2013-03-21 09:55:00,52.8,32.0,30.06,East,98,5.0,17.0,45,0.00,,,0.00,Wunderground v.1.15,2013-03-21 14:55:00,
2013-03-21 10:01:00,52.9,32.7,30.06,ENE,68,5.0,17.0,46,0.00,,,0.00,Wunderground v.1.15,2013-03-21 15:01:00,
2013-03-21 10:07:00,53.5,33.2,30.06,ENE,65,4.0,17.0,46,0.00,,,0.00,Wunderground v.1.15,2013-03-21 15:07:00,
2013-03-21 10:12:00,53.6,32.8,30.06,NE,48,4.0,17.0,45,0.00,,,0.00,Wunderground v.1.15,2013-03-21 15:12:00,
2013-03-21 10:18:00,53.9,32.5,30.06,NE,54,4.0,17.0,44,0.00,,,0.00,Wunderground v.1.15,2013-03-21 15:18:00,
2013-03-21 10:23:00,54.4,34.0,30.06,ENE,65,4.0,17.0,46,0.00,,,0.00,Wunderground v.1.15,2013-03-21 15:23:00,
2013-03-21 10:29:00,55.3,33.7,30.06,NNW,328,3.0,17.0,44,0.00,,,0.00,Wunderground v.1.15,2013-03-21 15:29:00,
2013-03-21 10:35:00,55.9,34.3,30.06,ESE,104,3.0,17.0,44,0.00,,,0.00,Wunderground v.1.15,2013-03-21 15:35:00,
2013-03-21 10:40:00,56.0,34.4,30.06,ENE,77,3.0,3.0,44,0.00,,,0.00,Wunderground v.1.15,2013-03-21 15:40:00,
2013-03-21 10:45:00,56.6,34.9,30.05,East,82,3.0,17.0,44,0.00,,,0.00,Wunderground v.1.15,2013-03-21 15:45:00,
2013-03-21 10:50:00,56.3,34.1,30.05,ENE,76,3.0,3.0,43,0.00,,,0.00,Wunderground v.1.15,2013-03-21 15:50:00,
2013-03-21 10:57:00,55.8,34.8,30.05,ENE,77,5.0,17.0,45,0.00,,,0.00,Wunderground v.1.15,2013-03-21 15:57:00,
2013-03-21 11:03:00,55.5,35.6,30.05,ESE,117,6.0,17.0,47,0.00,,,0.00,Wunderground v.1.15,2013-03-21 16:03:00,
2013-03-21 11:08:00,55.5,35.6,30.04,East,98,6.0,17.0,47,0.00,,,0.00,Wunderground v.1.15,2013-03-21 16:08:00,
2013-03-21 11:14:00,55.3,35.9,30.05,SE,131,6.0,17.0,48,0.00,,,0.00,Wunderground v.1.15,2013-03-21 16:14:00,
2013-03-21 11:19:00,55.2,35.8,30.05,ESE,105,7.0,17.0,48,0.00,,,0.00,Wunderground v.1.15,2013-03-21 16:19:00,
2013-03-21 11:25:00,55.1,36.8,30.05,East,81,7.0,17.0,50,0.00,,,0.00,Wunderground v.1.15,2013-03-21 16:25:00,
2013-03-21 11:31:00,55.2,36.4,30.05,East,97,7.0,17.0,49,0.00,,,0.00,Wunderground v.1.15,2013-03-21 16:31:00,
2013-03-21 11:37:00,55.7,36.3,30.04,East,101,6.0,17.0,48,0.00,,,0.00,Wunderground v.1.15,2013-03-21 16:37:00,
2013-03-21 11:43:00,55.5,36.6,30.04,ESE,107,7.0,17.0,49,0.00,,,0.00,Wunderground v.1.15,2013-03-21 16:43:00,
2013-03-21 11:49:00,55.6,37.7,30.04,SE,131,7.0,17.0,51,0.00,,,0.00,Wunderground v.1.15,2013-03-21 16:49:00,
2013-03-21 11:54:00,56.5,38.1,30.03,ESE,104,6.0,17.0,50,0.00,,,0.00,Wunderground v.1.15,2013-03-21 16:54:00,
2013-03-21 12:00:00,56.3,37.4,30.03,ESE,120,7.0,7.0,49,0.00,,,0.00,Wunderground v.1.15,2013-03-21 17:00:00,
2013-03-21 12:06:00,56.5,37.6,30.03,SE,126,7.0,17.0,49,0.00,,,0.00,Wunderground v.1.15,2013-03-21 17:06:00,
2013-03-21 12:12:00,56.3,37.4,30.02,SE,129,7.0,17.0,49,0.00,,,0.00,Wunderground v.1.15,2013-03-21 17:12:00,
2013-03-21 12:18:00,56.4,39.0,30.02,East,98,7.0,17.0,52,0.00,,,0.00,Wunderground v.1.15,2013-03-21 17:18:00,
2013-03-21 12:23:00,56.7,38.8,30.02,East,98,7.0,17.0,51,0.00,,,0.00,Wunderground v.1.15,2013-03-21 17:23:00,
2013-03-21 12:29:00,56.4,38.5,30.02,East,100,7.0,17.0,51,0.00,,,0.00,Wunderground v.1.15,2013-03-21 17:29:00,
2013-03-21 12:35:00,56.3,37.9,30.02,ESE,117,7.0,17.0,50,0.00,,,0.00,Wunderground v.1.15,2013-03-21 17:35:00,
2013-03-21 12:40:00,56.9,38.4,30.02,SSW,203,7.0,7.0,50,0.00,,,0.00,Wunderground v.1.15,2013-03-21 17:40:00,
2013-03-21 12:46:00,57.2,37.7,30.02,ESE,115,6.0,17.0,48,0.00,,,0.00,Wunderground v.1.15,2013-03-21 17:46:00,
2013-03-21 12:51:00,57.1,38.1,30.02,ESE,108,6.0,7.0,49,0.00,,,0.00,Wunderground v.1.15,2013-03-21 17:51:00,
2013-03-21 12:56:00,57.8,39.8,30.02,SE,138,5.0,17.0,51,0.00,,,0.00,Wunderground v.1.15,2013-03-21 17:56:00,
2013-03-21 13:01:00,58.2,39.1,30.01,SE,130,5.0,17.0,49,0.00,,,0.00,Wunderground v.1.15,2013-03-21 18:01:00,
2013-03-21 13:07:00,58.0,39.5,30.01,SE,142,5.0,17.0,50,0.00,,,0.00,Wunderground v.1.15,2013-03-21 18:07:00,
2013-03-21 13:13:00,57.9,38.8,30.00,SSE,158,5.0,17.0,49,0.00,,,0.00,Wunderground v.1.15,2013-03-21 18:13:00,
2013-03-21 13:18:00,58.4,38.2,30.00,ESE,122,5.0,17.0,47,0.00,,,0.00,Wunderground v.1.15,2013-03-21 18:18:00,
2013-03-21 13:24:00,58.4,39.8,30.00,SE,142,5.0,17.0,50,0.00,,,0.00,Wunderground v.1.15,2013-03-21 18:24:00,
2013-03-21 13:30:00,58.8,40.2,30.00,SSW,193,5.0,17.0,50,0.00,,,0.00,Wunderground v.1.15,2013-03-21 18:30:00,
2013-03-21 13:35:00,58.9,39.8,29.99,South,174,5.0,17.0,49,0.00,,,0.00,Wunderground v.1.15,2013-03-21 18:35:00,
2013-03-21 13:40:00,59.0,39.9,29.99,SSE,159,5.0,17.0,49,0.00,,,0.00,Wunderground v.1.15,2013-03-21 18:40:00,
2013-03-21 13:46:00,58.9,40.3,29.98,SSE,156,5.0,17.0,50,0.00,,,0.00,Wunderground v.1.15,2013-03-21 18:46:00,
2013-03-21 13:52:00,58.4,39.8,29.98,SSE,155,6.0,17.0,50,0.00,,,0.00,Wunderground v.1.15,2013-03-21 18:52:00,
2013-03-21 13:58:00,58.4,40.3,29.98,SSE,148,6.0,17.0,51,0.00,,,0.00,Wunderground v.1.15,2013-03-21 18:58:00,
2013-03-21 14:04:00,58.4,40.3,29.98,SE,136,6.0,17.0,51,0.00,,,0.00,Wunderground v.1.15,2013-03-21 19:04:00,
2013-03-21 14:10:00,58.7,39.0,29.97,SSE,163,6.0,17.0,48,0.00,,,0.00,Wunderground v.1.15,2013-03-21 19:10:00,
2013-03-21 14:15:00,59.0,39.3,29.97,SSE,163,6.0,17.0,48,0.00,,,0.00,Wunderground v.1.15,2013-03-21 19:15:00,
2013-03-21 14:21:00,59.1,40.5,29.97,SSE,156,7.0,17.0,50,0.00,,,0.00,Wunderground v.1.15,2013-03-21 19:21:00,
2013-03-21 14:27:00,59.7,41.5,29.96,SSE,160,7.0,17.0,51,0.00,,,0.00,Wunderground v.1.15,2013-03-21 19:27:00,
2013-03-21 14:33:00,59.8,41.1,29.96,SSE,158,7.0,17.0,50,0.00,,,0.00,Wunderground v.1.15,2013-03-21 19:33:00,
2013-03-21 14:38:00,59.3,41.2,29.95,SE,136,7.0,17.0,51,0.00,,,0.00,Wunderground v.1.15,2013-03-21 19:38:00,
2013-03-21 14:44:00,59.2,41.1,29.95,SSE,167,7.0,17.0,51,0.00,,,0.00,Wunderground v.1.15,2013-03-21 19:44:00,
2013-03-21 14:49:00,59.2,41.1,29.95,SSE,164,8.0,17.0,51,0.00,,,0.00,Wunderground v.1.15,2013-03-21 19:49:00,
2013-03-21 14:55:00,59.6,41.4,29.94,South,170,8.0,17.0,51,0.00,,,0.00,Wunderground v.1.15,2013-03-21 19:55:00,
2013-03-21 15:00:00,59.4,41.3,29.94,SSE,160,8.0,17.0,51,0.00,,,0.00,Wunderground v.1.15,2013-03-21 20:00:00,
2013-03-21 15:06:00,59.6,41.4,29.94,SSE,148,7.0,17.0,51,0.00,,,0.00,Wunderground v.1.15,2013-03-21 20:06:00,
2013-03-21 15:11:00,60.0,41.8,29.94,SSW,206,7.0,8.0,51,0.00,,,0.00,Wunderground v.1.15,2013-03-21 20:11:00,
2013-03-21 15:17:00,60.0,43.3,29.94,SSW,203,7.0,17.0,54,0.00,,,0.00,Wunderground v.1.15,2013-03-21 20:17:00,
2013-03-21 15:23:00,59.7,42.0,29.93,SSE,160,8.0,17.0,52,0.00,,,0.00,Wunderground v.1.15,2013-03-21 20:23:00,
2013-03-21 15:29:00,59.3,41.7,29.93,South,172,8.0,17.0,52,0.00,,,0.00,Wunderground v.1.15,2013-03-21 20:29:00,
2013-03-21 15:34:00,59.2,41.6,29.93,SSE,152,7.0,17.0,52,0.00,,,0.00,Wunderground v.1.15,2013-03-21 20:34:00,
2013-03-21 15:40:00,58.8,42.2,29.93,SSE,162,7.0,7.0,54,0.00,,,0.00,Wunderground v.1.15,2013-03-21 20:40:00,
2013-03-21 15:45:00,58.6,42.5,29.92,SE,136,8.0,17.0,55,0.00,,,0.00,Wunderground v.1.15,2013-03-21 20:45:00,
2013-03-21 15:53:00,58.4,42.3,29.92,SE,145,8.0,17.0,55,0.00,,,0.00,Wunderground v.1.15,2013-03-21 20:53:00,
2013-03-21 15:58:00,58.4,42.8,29.91,SE,129,8.0,17.0,56,0.00,,,0.00,Wunderground v.1.15,2013-03-21 20:58:00,
2013-03-21 16:04:00,59.3,42.2,29.91,SE,134,8.0,17.0,53,0.00,,,0.00,Wunderground v.1.15,2013-03-21 21:04:00,
2013-03-21 16:09:00,59.7,42.5,29.91,SSE,160,8.0,17.0,53,0.00,,,0.00,Wunderground v.1.15,2013-03-21 21:09:00,
2013-03-21 16:15:00,59.6,41.9,29.91,SE,130,8.0,17.0,52,0.00,,,0.00,Wunderground v.1.15,2013-03-21 21:15:00,
2013-03-21 16:20:00,59.6,42.9,29.92,South,181,9.0,9.0,54,0.00,,,0.00,Wunderground v.1.15,2013-03-21 21:20:00,
2013-03-21 16:26:00,59.7,44.4,29.91,SSE,150,8.0,17.0,57,0.00,,,0.00,Wunderground v.1.15,2013-03-21 21:26:00,
2013-03-21 16:32:00,59.4,42.7,29.91,SSE,165,9.0,17.0,54,0.00,,,0.00,Wunderground v.1.15,2013-03-21 21:32:00,
2013-03-21 16:38:00,59.0,43.8,29.91,SSE,167,9.0,17.0,57,0.00,,,0.00,Wunderground v.1.15,2013-03-21 21:38:00,
2013-03-21 16:43:00,58.8,44.0,29.90,SSE,166,9.0,17.0,58,0.00,,,0.00,Wunderground v.1.15,2013-03-21 21:43:00,
2013-03-21 16:48:00,58.8,44.0,29.90,SE,145,9.0,17.0,58,0.00,,,0.00,Wunderground v.1.15,2013-03-21 21:48:00,
2013-03-21 16:54:00,58.5,43.3,29.90,SSE,154,9.0,17.0,57,0.00,,,0.00,Wunderground v.1.15,2013-03-21 21:54:00,
2013-03-21 17:00:00,58.7,44.4,29.90,SSE,158,8.0,17.0,59,0.00,,,0.00,Wunderground v.1.15,2013-03-21 22:00:00,
2013-03-21 17:05:00,58.9,44.1,29.90,SSE,155,8.0,17.0,58,0.00,,,0.00,Wunderground v.1.15,2013-03-21 22:05:00,
2013-03-21 17:10:00,59.1,44.8,29.90,SE,142,8.0,17.0,59,0.00,,,0.00,Wunderground v.1.15,2013-03-21 22:10:00,
2013-03-21 17:16:00,58.7,44.0,29.90,South,170,8.0,17.0,58,0.00,,,0.00,Wunderground v.1.15,2013-03-21 22:16:00,
2013-03-21 17:22:00,58.8,44.0,29.89,SSE,148,8.0,10.0,58,0.00,,,0.00,Wunderground v.1.15,2013-03-21 22:22:00,
2013-03-21 17:28:00,58.8,44.5,29.90,South,172,8.0,17.0,59,0.00,,,0.00,Wunderground v.1.15,2013-03-21 22:28:00,
2013-03-21 17:33:00,59.3,44.1,29.90,SSE,150,8.0,17.0,57,0.00,,,0.00,Wunderground v.1.15,2013-03-21 22:33:00,
2013-03-21 17:38:00,59.3,44.5,29.90,South,169,8.0,17.0,58,0.00,,,0.00,Wunderground v.1.15,2013-03-21 22:38:00,
2013-03-21 17:44:00,59.0,43.8,29.90,SSE,148,8.0,17.0,57,0.00,,,0.00,Wunderground v.1.15,2013-03-21 22:44:00,
2013-03-21 17:49:00,58.8,45.4,29.89,SSE,160,8.0,17.0,61,0.00,,,0.00,Wunderground v.1.15,2013-03-21 22:49:00,
2013-03-21 17:54:00,58.5,45.1,29.89,South,188,8.0,17.0,61,0.00,,,0.00,Wunderground v.1.15,2013-03-21 22:54:00,
2013-03-21 18:00:00,58.3,44.9,29.89,SSE,156,8.0,17.0,61,0.00,,,0.00,Wunderground v.1.15,2013-03-21 23:00:00,
2013-03-21 18:05:00,58.0,44.2,29.89,South,180,8.0,17.0,60,0.00,,,0.00,Wunderground v.1.15,2013-03-21 23:05:00,
2013-03-21 18:11:00,58.1,44.3,29.89,SSE,153,8.0,9.0,60,0.00,,,0.00,Wunderground v.1.15,2013-03-21 23:11:00,
2013-03-21 18:17:00,58.0,44.2,29.89,SSE,148,8.0,17.0,60,0.00,,,0.00,Wunderground v.1.15,2013-03-21 23:17:00,
2013-03-21 18:22:00,58.1,46.4,29.89,SE,145,9.0,11.0,65,0.00,,,0.00,Wunderground v.1.15,2013-03-21 23:22:00,
2013-03-21 18:28:00,58.2,45.7,29.89,SSE,152,8.0,17.0,63,0.00,,,0.00,Wunderground v.1.15,2013-03-21 23:28:00,
2013-03-21 18:34:00,58.0,45.5,29.89,SE,145,9.0,17.0,63,0.00,,,0.00,Wunderground v.1.15,2013-03-21 23:34:00,
2013-03-21 18:40:00,58.1,46.0,29.89,SSE,148,9.0,17.0,64,0.00,,,0.00,Wunderground v.1.15,2013-03-21 23:40:00,
2013-03-21 18:46:00,58.0,46.7,29.88,SSE,167,8.0,17.0,66,0.00,,,0.00,Wunderground v.1.15,2013-03-21 23:46:00,
2013-03-21 18:52:00,57.9,45.8,29.88,South,173,8.0,17.0,64,0.00,,,0.00,Wunderground v.1.15,2013-03-21 23:52:00,
2013-03-21 18:58:00,57.7,46.4,29.89,SSE,167,8.0,17.0,66,0.00,,,0.00,Wunderground v.1.15,2013-03-21 23:58:00,
2013-03-21 19:04:00,57.8,46.5,29.89,SSE,148,8.0,17.0,66,0.00,,,0.00,Wunderground v.1.15,2013-03-22 00:04:00,
2013-03-21 19:10:00,57.6,45.9,29.89,South,179,7.0,17.0,65,0.00,,,0.00,Wunderground v.1.15,2013-03-22 00:10:00,
2013-03-21 19:15:00,57.7,46.4,29.89,SSE,159,7.0,17.0,66,0.00,,,0.00,Wunderground v.1.15,2013-03-22 00:15:00,
2013-03-21 19:21:00,57.6,45.9,29.89,SSE,167,7.0,17.0,65,0.00,,,0.00,Wunderground v.1.15,2013-03-22 00:21:00,
2013-03-21 19:26:00,57.6,45.5,29.89,SSE,155,6.0,17.0,64,0.00,,,0.00,Wunderground v.1.15,2013-03-22 00:26:00,
2013-03-21 19:31:00,57.6,45.1,29.89,SSE,156,6.0,17.0,63,0.00,,,0.00,Wunderground v.1.15,2013-03-22 00:31:00,
2013-03-21 19:37:00,57.7,45.2,29.88,SE,142,7.0,17.0,63,0.00,,,0.00,Wunderground v.1.15,2013-03-22 00:37:00,
2013-03-21 19:42:00,57.7,44.3,29.88,SE,128,7.0,17.0,61,0.00,,,0.00,Wunderground v.1.15,2013-03-22 00:42:00,
2013-03-21 19:47:00,57.8,45.7,29.88,SE,138,6.0,17.0,64,0.00,,,0.00,Wunderground v.1.15,2013-03-22 00:47:00,
2013-03-21 19:53:00,57.7,45.6,29.89,SE,135,7.0,17.0,64,0.00,,,0.00,Wunderground v.1.15,2013-03-22 00:53:00,
2013-03-21 19:58:00,57.7,46.0,29.89,South,179,7.0,17.0,65,0.00,,,0.00,Wunderground v.1.15,2013-03-22 00:58:00,
2013-03-21 20:04:00,57.7,45.2,29.89,SE,139,7.0,17.0,63,0.00,,,0.00,Wunderground v.1.15,2013-03-22 01:04:00,
2013-03-21 20:10:00,57.7,45.2,29.88,ESE,110,5.0,17.0,63,0.00,,,0.00,Wunderground v.1.15,2013-03-22 01:10:00,
2013-03-21 20:15:00,57.7,44.8,29.88,SE,131,5.0,17.0,62,0.00,,,0.00,Wunderground v.1.15,2013-03-22 01:15:00,
2013-03-21 20:21:00,57.7,46.8,29.89,SSE,167,5.0,9.0,67,0.00,,,0.00,Wunderground v.1.15,2013-03-22 01:21:00,
2013-03-21 20:27:00,57.7,46.4,29.88,SE,146,5.0,17.0,66,0.00,,,0.00,Wunderground v.1.15,2013-03-22 01:27:00,
2013-03-21 20:33:00,57.8,45.3,29.88,SE,127,6.0,17.0,63,0.00,,,0.00,Wunderground v.1.15,2013-03-22 01:33:00,
2013-03-21 20:38:00,57.9,46.2,29.89,SSE,159,6.0,17.0,65,0.00,,,0.00,Wunderground v.1.15,2013-03-22 01:38:00,
2013-03-21 20:44:00,58.0,43.7,29.89,SSE,148,8.0,17.0,59,0.00,,,0.00,Wunderground v.1.15,2013-03-22 01:44:00,
2013-03-21 20:50:00,58.2,44.8,29.90,SE,139,10.0,10.0,61,0.00,,,0.00,Wunderground v.1.15,2013-03-22 01:50:00,
2013-03-21 20:56:00,58.3,44.9,29.89,South,169,9.0,17.0,61,0.00,,,0.00,Wunderground v.1.15,2013-03-22 01:56:00,
2013-03-21 21:02:00,58.3,46.2,29.89,SSE,158,10.0,17.0,64,0.00,,,0.00,Wunderground v.1.15,2013-03-22 02:02:00,
2013-03-21 21:08:00,58.3,45.8,29.89,SSE,160,10.0,17.0,63,0.00,,,0.00,Wunderground v.1.15,2013-03-22 02:08:00,
2013-03-21 21:14:00,58.3,45.8,29.90,SE,146,9.0,17.0,63,0.00,,,0.00,Wunderground v.1.15,2013-03-22 02:14:00,
2013-03-21 21:19:00,58.3,46.2,29.90,SSE,150,8.0,17.0,64,0.00,,,0.00,Wunderground v.1.15,2013-03-22 02:19:00,
2013-03-21 21:25:00,58.4,44.1,29.90,South,172,8.0,17.0,59,0.00,,,0.00,Wunderground v.1.15,2013-03-22 02:25:00,
2013-03-21 21:30:00,58.5,45.1,29.90,SE,131,7.0,7.0,61,0.00,,,0.00,Wunderground v.1.15,2013-03-22 02:30:00,
2013-03-21 21:36:00,58.5,45.1,29.90,SSE,155,5.0,17.0,61,0.00,,,0.00,Wunderground v.1.15,2013-03-22 02:36:00,
2013-03-21 21:42:00,58.5,44.2,29.90,SSE,165,6.0,8.0,59,0.00,,,0.00,Wunderground v.1.15,2013-03-22 02:42:00,
2013-03-21 21:47:00,58.6,44.8,29.90,SSE,165,6.0,17.0,60,0.00,,,0.00,Wunderground v.1.15,2013-03-22 02:47:00,
2013-03-21 21:53:00,58.6,46.0,29.89,SSE,155,7.0,17.0,63,0.00,,,0.00,Wunderground v.1.15,2013-03-22 02:53:00,
2013-03-21 21:59:00,58.5,44.2,29.89,SSE,149,6.0,17.0,59,0.00,,,0.00,Wunderground v.1.15,2013-03-22 02:59:00,
2013-03-21 22:05:00,58.5,43.8,29.89,SE,130,5.0,17.0,58,0.00,,,0.00,Wunderground v.1.15,2013-03-22 03:05:00,
2013-03-21 22:11:00,58.4,44.1,29.88,SE,145,5.0,17.0,59,0.00,,,0.00,Wunderground v.1.15,2013-03-22 03:11:00,
2013-03-21 22:17:00,58.5,44.7,29.88,ESE,122,4.0,17.0,60,0.00,,,0.00,Wunderground v.1.15,2013-03-22 03:17:00,
2013-03-21 22:23:00,58.5,45.1,29.88,SE,129,4.0,17.0,61,0.00,,,0.00,Wunderground v.1.15,2013-03-22 03:23:00,
2013-03-21 22:29:00,58.5,45.1,29.88,ESE,123,5.0,17.0,61,0.00,,,0.00,Wunderground v.1.15,2013-03-22 03:29:00,
2013-03-21 22:34:00,58.5,45.9,29.88,SE,129,5.0,17.0,63,0.00,,,0.00,Wunderground v.1.15,2013-03-22 03:34:00,
2013-03-21 22:40:00,58.5,45.5,29.88,East,99,6.0,17.0,62,0.00,,,0.00,Wunderground v.1.15,2013-03-22 03:40:00,
2013-03-21 22:46:00,58.6,46.0,29.88,SE,131,7.0,17.0,63,0.00,,,0.00,Wunderground v.1.15,2013-03-22 03:46:00,
2013-03-21 22:52:00,58.6,46.9,29.88,ESE,110,7.0,17.0,65,0.00,,,0.00,Wunderground v.1.15,2013-03-22 03:52:00,
2013-03-21 22:58:00,58.7,48.6,29.88,SE,126,6.0,17.0,69,0.00,,,0.00,Wunderground v.1.15,2013-03-22 03:58:00,
2013-03-21 23:00:00,58.8,47.9,29.88,SE,129,5.0,17.0,67,0.00,,,0.00,Wunderground v.1.15,2013-03-22 04:00:00,
2013-03-21 23:02:00,58.8,47.5,29.88,SE,127,5.0,17.0,66,0.00,,,0.00,Wunderground v.1.15,2013-03-22 04:02:00,
2013-03-21 23:04:00,58.8,48.3,29.88,SE,136,5.0,17.0,68,0.00,,,0.00,Wunderground v.1.15,2013-03-22 04:04:00,
2013-03-21 23:09:00,58.8,47.9,29.88,SE,146,5.0,17.0,67,0.00,,,0.00,Wunderground v.1.15,2013-03-22 04:09:00,
2013-03-21 23:14:00,58.8,48.6,29.88,SE,139,5.0,17.0,69,0.00,,,0.00,Wunderground v.1.15,2013-03-22 04:14:00,
2013-03-21 23:20:00,58.9,48.0,29.89,SE,131,5.0,17.0,67,0.00,,,0.00,Wunderground v.1.15,2013-03-22 04:20:00,
2013-03-21 23:25:00,59.0,48.4,29.88,East,98,5.0,17.0,68,0.00,,,0.00,Wunderground v.1.15,2013-03-22 04:25:00,
2013-03-21 23:30:00,59.0,48.8,29.89,SSE,150,5.0,5.0,69,0.00,,,0.00,Wunderground v.1.15,2013-03-22 04:30:00,
2013-03-21 23:36:00,59.0,48.4,29.89,SE,136,4.0,17.0,68,0.00,,,0.00,Wunderground v.1.15,2013-03-22 04:36:00,
2013-03-21 23:42:00,59.0,48.8,29.89,SE,130,5.0,17.0,69,0.00,,,0.00,Wunderground v.1.15,2013-03-22 04:42:00,
2013-03-21 23:47:00,59.0,48.4,29.88,SE,139,4.0,17.0,68,0.00,,,0.00,Wunderground v.1.15,2013-03-22 04:47:00,
2013-03-21 23:53:00,59.0,49.2,29.88,SSE,165,5.0,17.0,70,0.00,,,0.00,Wunderground v.1.15,2013-03-22 04:53:00,
2013-03-21 23:59:00,58.9,49.1,29.88,SE,131,5.0,17.0,70,0.00,,,0.00,Wunderground v.1.15,2013-03-22 04:59:00,